This is the latest recevied weather packets stored in our database for station/object AA4OM-2. If no packets are shown the sender has not sent any weather packets the latest 10 day(s).
| Time | Temp. | Humidity | Pressure | Rain* | Wind** | Luminosity | Snow |
|---|---|---|---|---|---|---|---|
| 1777844890 | 21.11° C | 34% | 1016.9 hPa | 0 mm | - | 418 W/m² | - |
| 1777844284 | 21.11° C | 34% | 1017.1 hPa | 0 mm | - | 459 W/m² | - |
| 1777843981 | 21.11° C | 34% | 1017.1 hPa | 0 mm | - | 477 W/m² | - |
| 1777843376 | 20.56° C | 34% | 1017.5 hPa | 0 mm | - | 516 W/m² | - |
| 1777843073 | 21.11° C | 34% | 1017.6 hPa | 0 mm | - | 533 W/m² | - |
| 1777842769 | 21.11° C | 34% | 1017.4 hPa | 0 mm | - | 553 W/m² | - |
| 1777842464 | 20.56° C | 35% | 1017.8 hPa | 0 mm | - | 573 W/m² | - |
| 1777841863 | 20.56° C | 35% | 1017.7 hPa | 0 mm | - | 608 W/m² | - |
| 1777841560 | 21.11° C | 34% | 1017.7 hPa | 0 mm | - | 626 W/m² | - |
| 1777840954 | 20.56° C | 34% | 1018.2 hPa | 0 mm | - | 659 W/m² | - |
| 1777840651 | 20.56° C | 34% | 1018.1 hPa | 0 mm | - | 679 W/m² | - |
| 1777840348 | 20.56° C | 36% | 1018.4 hPa | 0 mm | - | 698 W/m² | - |
| 1777840045 | 20.56° C | 35% | 1018.4 hPa | 0 mm | - | 710 W/m² | - |
| 1777839743 | 21.11° C | 34% | 1018.9 hPa | 0 mm | - | 727 W/m² | - |
| 1777839441 | 21.11° C | 38% | 1018.5 hPa | 0 mm | - | 743 W/m² | - |
| 1777839138 | 20° C | 35% | 1019 hPa | 0 mm | - | 756 W/m² | - |
| 1777838834 | 20° C | 35% | 1019.1 hPa | 0 mm | - | 771 W/m² | - |
| 1777838531 | 20° C | 35% | 1019.3 hPa | 0 mm | - | 786 W/m² | - |
| 1777837925 | 20.56° C | 34% | 1019.3 hPa | 0 mm | - | 813 W/m² | - |
| 1777837622 | 20° C | 38% | 1019.6 hPa | 0 mm | - | 825 W/m² | - |
| 1777835798 | 19.44° C | 35% | 1019.9 hPa | 0 mm | - | 894 W/m² | - |
| 1777835495 | 20° C | 36% | 1020 hPa | 0 mm | - | 906 W/m² | - |
| 1777834889 | 19.44° C | 40% | 1020.2 hPa | 0 mm | - | 923 W/m² | - |
| 1777834586 | 18.89° C | 40% | 1020 hPa | 0 mm | - | 930 W/m² | - |
| 1777834281 | 19.44° C | 37% | 1020.3 hPa | 0 mm | - | 941 W/m² | - |
* Rain latest hour (hover to see other rain measurements)
** Current wind speed in m/s (hover to see current wind gust speed)